Weather History for CWLG - January, 2014

Change the Weather History Date:

Saturday, January 25, 2014

  Actual Average Record
Temperature  
Mean Temperature -0 °F -  
Max Temperature 8 °F - - ()
Min Temperature -9 °F - - ()
Degree Days  
Heating Degree Days 66    
Moisture  
Dew Point -3 °F    
Average Humidity 84    
Maximum Humidity 89    
Minimum Humidity 70    
Precipitation  
Precipitation 0.00 in - - ()
Sea Level Pressure  
Sea Level Pressure 30.54 in    
Wind  
Wind Speed 4 mph ()    
Max Wind Speed 8 mph    
Max Gust Speed -    
T = Trace of Precipitation, MM = Missing Value Source: Averaged Metar Reports

Daily Weather History Graph

Daily Weather History Graph

Search for Another Location

Airport or City:

Trip Planner

Search our weather history database for the weather conditions in past years. The results will help you decide how hot, cold, wet, or windy it might be!

Date:

Astronomy

Jan. 25, 2014 Rise Set
Actual Time 11:15 AM MST 4:32 PM MST
Civil Twilight 10:00 AM MST 5:47 PM MST
Nautical Twilight 8:50 AM MST 6:57 PM MST
Astronomical Twilight 7:46 AM MST 8:01 PM MST
Moon 5:44 AM MST (1/25) 11:42 AM MST (1/25)
Length of Visible Light 7h 46m
Length of Day
5h 17m
Waning Crescent, 33% of the Moon is Illuminated
Jan 25
Waning Crescent
Jan 30
New
Feb 6
First Quarter
Feb 14
Full
Feb 22
Last Quarter

Hourly Weather History & Observations

Time (MST) Temp. Windchill Dew Point Humidity Pressure Visibility Wind Dir Wind Speed Gust Speed Precip Events Conditions
12:00 AM 8.4 °F 1.8 °F 5.7 °F 89% 30.12 in - NNW 3.5 mph - N/A   Unknown
1:00 AM 8.2 °F 1.6 °F 5.4 °F 88% 30.17 in - NNW 3.5 mph - N/A   Unknown
2:00 AM 8.4 °F -3.9 °F 5.7 °F 89% 30.24 in - NNW 8.1 mph - N/A   Unknown
3:00 AM 8.4 °F -0.1 °F 5.7 °F 89% 30.30 in - NNW 4.6 mph - N/A   Unknown
4:00 AM 7.7 °F -0.9 °F 5.0 °F 89% 30.36 in - NNW 4.6 mph - N/A   Unknown
5:00 AM 8 °F - 5 °F 81% 30.41 in - NNW 5.8 mph - -  
5:00 AM 7.7 °F -2.4 °F 5.0 °F 89% 30.41 in - North 5.8 mph - N/A   Unknown
6:00 AM 7.9 °F - 5.2 °F 89% 30.45 in - North 2.3 mph - N/A   Unknown
7:00 AM 7.5 °F - 4.8 °F 89% 30.48 in - NE 1.2 mph - N/A   Unknown
8:00 AM 7.2 °F - 4.3 °F 88% 30.51 in - ENE 2.3 mph - N/A   Unknown
9:00 AM 6.1 °F -4.3 °F 3.0 °F 87% 30.53 in - ENE 5.8 mph - N/A   Unknown
10:00 AM 1.8 °F -10.8 °F -1.5 °F 86% 30.56 in - East 6.9 mph - N/A   Unknown
11:00 AM -1 °F - -5 °F 77% 30.59 in - ENE 3.5 mph - -  
11:00 AM -0.9 °F -11.0 °F -4.5 °F 85% 30.59 in - East 4.6 mph - N/A   Unknown
12:00 PM -2.6 °F -12.9 °F -6.3 °F 84% 30.63 in - ENE 4.6 mph - N/A   Unknown
1:00 PM -3.1 °F - -6.5 °F 85% 30.66 in - ENE 1.2 mph - N/A   Unknown
2:00 PM -2.7 °F - -6.5 °F 84% 30.67 in - NW 1.2 mph - N/A   Unknown
3:00 PM -3.3 °F -11.6 °F -7.1 °F 84% 30.69 in - East 3.5 mph - N/A   Unknown
4:00 PM -6.3 °F - -10.5 °F 82% 30.71 in - SSE 1.2 mph - N/A   Unknown
5:00 PM -5 °F - -9 °F 76% 30.70 in - East 6.9 mph - -  
5:00 PM -4.7 °F -18.6 °F -8.7 °F 83% 30.70 in - East 6.9 mph - N/A   Unknown
6:00 PM -5.8 °F -14.5 °F -9.9 °F 82% 30.69 in - ESE 3.5 mph - N/A   Unknown
7:00 PM -8.0 °F -22.5 °F -12.5 °F 81% 30.68 in - East 6.9 mph - N/A   Unknown
8:00 PM -6.9 °F -17.9 °F -11.0 °F 82% 30.66 in - East 4.6 mph - N/A   Unknown
9:00 PM -8.3 °F - -12.8 °F 81% 30.64 in - South 1.2 mph - N/A   Unknown
10:00 PM -8.3 °F - -12.6 °F 81% 30.64 in - SSE 2.3 mph - N/A   Unknown
11:00 PM -9 °F - -14 °F 70% 30.63 in - ESE 2.3 mph - -  
11:00 PM -9.0 °F - -13.5 °F 81% 30.63 in - East 2.3 mph - N/A   Unknown